����������;��������(kWh)
2015-12-14 00:00;79,2
2015-12-14 00:15;77,6
2015-12-14 00:30;77,2
2015-12-14 00:45;75,7
2015-12-14 01:00;74,55
2015-12-14 01:15;75,3
2015-12-14 01:30;74,4
2015-12-14 01:45;74,95
2015-12-14 02:00;74,3
2015-12-14 02:15;74,55
2015-12-14 02:30;73,7
2015-12-14 02:45;73,1
2015-12-14 03:00;73,4
2015-12-14 03:15;79,1
2015-12-14 03:30;82,15
2015-12-14 03:45;82,35
2015-12-14 04:00;84,8
2015-12-14 04:15;82,8
2015-12-14 04:30;84,1
2015-12-14 04:45;85,7
2015-12-14 05:00;85,95
2015-12-14 05:15;81,35
2015-12-14 05:30;84,55
2015-12-14 05:45;84
2015-12-14 06:00;85,95
2015-12-14 06:15;86,2
2015-12-14 06:30;90
2015-12-14 06:45;92,85
2015-12-14 07:00;89,8
2015-12-14 07:15;110,3
2015-12-14 07:30;121,4
2015-12-14 07:45;130,95
2015-12-14 08:00;182,7
2015-12-14 08:15;153,9
2015-12-14 08:30;142,55
2015-12-14 08:45;145,85
2015-12-14 09:00;154,85
2015-12-14 09:15;177,3
2015-12-14 09:30;190,55
2015-12-14 09:45;205,9
2015-12-14 10:00;215,8
2015-12-14 10:15;219,3
2015-12-14 10:30;223,25
2015-12-14 10:45;233,65
2015-12-14 11:00;228
2015-12-14 11:15;229,5
2015-12-14 11:30;235,65
2015-12-14 11:45;219,15
2015-12-14 12:00;229,4
2015-12-14 12:15;236,25
2015-12-14 12:30;230,55
2015-12-14 12:45;248,4
2015-12-14 13:00;238,65
2015-12-14 13:15;247,65
2015-12-14 13:30;249,85
2015-12-14 13:45;243,35
2015-12-14 14:00;245,1
2015-12-14 14:15;235,2
2015-12-14 14:30;244,6
2015-12-14 14:45;228,35
2015-12-14 15:00;221,2
2015-12-14 15:15;216,55
2015-12-14 15:30;208,55
2015-12-14 15:45;202,65
2015-12-14 16:00;193,8
2015-12-14 16:15;186,2
2015-12-14 16:30;193,05
2015-12-14 16:45;193
2015-12-14 17:00;187,75
2015-12-14 17:15;181,1
2015-12-14 17:30;178,4
2015-12-14 17:45;184,15
2015-12-14 18:00;177,45
2015-12-14 18:15;171,15
2015-12-14 18:30;170,25
2015-12-14 18:45;173,4
2015-12-14 19:00;173,6
2015-12-14 19:15;158,05
2015-12-14 19:30;160,7
2015-12-14 19:45;150,25
2015-12-14 20:00;142,05
2015-12-14 20:15;137,25
2015-12-14 20:30;135,05
2015-12-14 20:45;137,25
2015-12-14 21:00;127,95
2015-12-14 21:15;113
2015-12-14 21:30;112,1
2015-12-14 21:45;103,05
2015-12-14 22:00;98,55
2015-12-14 22:15;97,05
2015-12-14 22:30;93,65
2015-12-14 22:45;89,35
2015-12-14 23:00;89,85
2015-12-14 23:15;87,9
2015-12-14 23:30;86,35
2015-12-14 23:45;88,1
2015-12-15 00:00;87,1
2015-12-15 00:15;85,1
2015-12-15 00:30;86
2015-12-15 00:45;89,25
2015-12-15 01:00;90,85
2015-12-15 01:15;90,05
2015-12-15 01:30;88,9
2015-12-15 01:45;91
2015-12-15 02:00;83,7
2015-12-15 02:15;80,55
2015-12-15 02:30;81,65
2015-12-15 02:45;81,85
2015-12-15 03:00;79,5
2015-12-15 03:15;80
2015-12-15 03:30;80,3
2015-12-15 03:45;81,6
2015-12-15 04:00;81,65
2015-12-15 04:15;79,25
2015-12-15 04:30;80,05
2015-12-15 04:45;84,55
2015-12-15 05:00;81,5
2015-12-15 05:15;78,6
2015-12-15 05:30;82,35
2015-12-15 05:45;78,25
2015-12-15 06:00;81,2
2015-12-15 06:15;81,95
2015-12-15 06:30;86,95
2015-12-15 06:45;88,45
2015-12-15 07:00;98,2
2015-12-15 07:15;123,25
2015-12-15 07:30;133,9
2015-12-15 07:45;135,9
2015-12-15 08:00;132,45
2015-12-15 08:15;131,45
2015-12-15 08:30;142,5
2015-12-15 08:45;156,5
2015-12-15 09:00;165,7
2015-12-15 09:15;180,1
2015-12-15 09:30;188,65
2015-12-15 09:45;200,7
2015-12-15 10:00;209,75
2015-12-15 10:15;223,05
2015-12-15 10:30;271,8
2015-12-15 10:45;279,8
2015-12-15 11:00;261,45
2015-12-15 11:15;248,4
2015-12-15 11:30;250,55
2015-12-15 11:45;252,7
2015-12-15 12:00;253,5
2015-12-15 12:15;243,6
2015-12-15 12:30;253,5
2015-12-15 12:45;254,35
2015-12-15 13:00;256,8
2015-12-15 13:15;261,5
2015-12-15 13:30;267,1
2015-12-15 13:45;256,1
2015-12-15 14:00;263,3
2015-12-15 14:15;264,3
2015-12-15 14:30;245,45
2015-12-15 14:45;260,25
2015-12-15 15:00;256,4
2015-12-15 15:15;228,1
2015-12-15 15:30;221,5
2015-12-15 15:45;217,6
2015-12-15 16:00;217,1
2015-12-15 16:15;198,55
2015-12-15 16:30;199,15
2015-12-15 16:45;193,25
2015-12-15 17:00;191,1
2015-12-15 17:15;196,5
2015-12-15 17:30;203,05
2015-12-15 17:45;209,8
2015-12-15 18:00;206,1
2015-12-15 18:15;209
2015-12-15 18:30;204,65
2015-12-15 18:45;194,7
2015-12-15 19:00;194,15
2015-12-15 19:15;179,5
2015-12-15 19:30;169,9
2015-12-15 19:45;164
2015-12-15 20:00;162,8
2015-12-15 20:15;151
2015-12-15 20:30;147,4
2015-12-15 20:45;142,1
2015-12-15 21:00;139,55
2015-12-15 21:15;128,5
2015-12-15 21:30;123,05
2015-12-15 21:45;111,55
2015-12-15 22:00;104,6
2015-12-15 22:15;104,85
2015-12-15 22:30;104,2
2015-12-15 22:45;104,1
2015-12-15 23:00;100
2015-12-15 23:15;96,7
2015-12-15 23:30;95,55
2015-12-15 23:45;96,4
2015-12-16 00:00;96,75
2015-12-16 00:15;87,7
2015-12-16 00:30;90,5
2015-12-16 00:45;90,35
2015-12-16 01:00;91,65
2015-12-16 01:15;86,55
2015-12-16 01:30;83,2
2015-12-16 01:45;85,25
2015-12-16 02:00;83,95
2015-12-16 02:15;84
2015-12-16 02:30;83,45
2015-12-16 02:45;84,4
2015-12-16 03:00;82,75
2015-12-16 03:15;84,35
2015-12-16 03:30;84,45
2015-12-16 03:45;85,05
2015-12-16 04:00;95,8
2015-12-16 04:15;94,85
2015-12-16 04:30;95,65
2015-12-16 04:45;97,1
2015-12-16 05:00;98,15
2015-12-16 05:15;92,85
2015-12-16 05:30;92,55
2015-12-16 05:45;93,75
2015-12-16 06:00;91,9
2015-12-16 06:15;96,35
2015-12-16 06:30;104,85
2015-12-16 06:45;104
2015-12-16 07:00;104,85
2015-12-16 07:15;124,65
2015-12-16 07:30;136
2015-12-16 07:45;134,6
2015-12-16 08:00;127,2
2015-12-16 08:15;131,3
2015-12-16 08:30;141,25
2015-12-16 08:45;148,9
2015-12-16 09:00;160,25
2015-12-16 09:15;184,15
2015-12-16 09:30;220
2015-12-16 09:45;257,35
2015-12-16 10:00;217,65
2015-12-16 10:15;227,9
2015-12-16 10:30;247
2015-12-16 10:45;254,75
2015-12-16 11:00;259,65
2015-12-16 11:15;246,05
2015-12-16 11:30;253,4
2015-12-16 11:45;262,25
2015-12-16 12:00;279,75
2015-12-16 12:15;286,4
2015-12-16 12:30;288
2015-12-16 12:45;291,3
2015-12-16 13:00;290,2
2015-12-16 13:15;281,5
2015-12-16 13:30;273,75
2015-12-16 13:45;274,2
2015-12-16 14:00;269,55
2015-12-16 14:15;264,9
2015-12-16 14:30;259,85
2015-12-16 14:45;244
2015-12-16 15:00;248,6
2015-12-16 15:15;237,65
2015-12-16 15:30;233,85
2015-12-16 15:45;224,6
2015-12-16 16:00;216,5
2015-12-16 16:15;204,3
2015-12-16 16:30;199,3
2015-12-16 16:45;201
2015-12-16 17:00;201,35
2015-12-16 17:15;194,25
2015-12-16 17:30;197,9
2015-12-16 17:45;199,45
2015-12-16 18:00;191,35
2015-12-16 18:15;186,25
2015-12-16 18:30;183,05
2015-12-16 18:45;173,95
2015-12-16 19:00;170,6
2015-12-16 19:15;146,6
2015-12-16 19:30;143
2015-12-16 19:45;143
2015-12-16 20:00;139
2015-12-16 20:15;139,85
2015-12-16 20:30;133,15
2015-12-16 20:45;128,8
2015-12-16 21:00;129,2
2015-12-16 21:15;116,4
2015-12-16 21:30;119,25
2015-12-16 21:45;113,1
2015-12-16 22:00;102,1
2015-12-16 22:15;92,45
2015-12-16 22:30;91,5
2015-12-16 22:45;91,55
2015-12-16 23:00;90,65
2015-12-16 23:15;87,35
2015-12-16 23:30;86,05
2015-12-16 23:45;86,35
2015-12-17 00:00;84,7
2015-12-17 00:15;84,95
2015-12-17 00:30;86,45
2015-12-17 00:45;83,75
2015-12-17 01:00;83,75
2015-12-17 01:15;81,95
2015-12-17 01:30;83,15
2015-12-17 01:45;82,45
2015-12-17 02:00;81,9
2015-12-17 02:15;84,8
2015-12-17 02:30;87,25
2015-12-17 02:45;86,55
2015-12-17 03:00;86,8
2015-12-17 03:15;87,2
2015-12-17 03:30;87,6
2015-12-17 03:45;86,6
2015-12-17 04:00;81,5
2015-12-17 04:15;78,55
2015-12-17 04:30;86,05
2015-12-17 04:45;91,1
2015-12-17 05:00;91,5
2015-12-17 05:15;88
2015-12-17 05:30;90,15
2015-12-17 05:45;89,25
2015-12-17 06:00;91,35
2015-12-17 06:15;92,2
2015-12-17 06:30;99,1
2015-12-17 06:45;97,75
2015-12-17 07:00;99,8
2015-12-17 07:15;120,1
2015-12-17 07:30;130,7
2015-12-17 07:45;136,15
2015-12-17 08:00;192,6
2015-12-17 08:15;154,85
2015-12-17 08:30;153,1
2015-12-17 08:45;166,15
2015-12-17 09:00;169,95
2015-12-17 09:15;197,6
2015-12-17 09:30;208,85
2015-12-17 09:45;216,05
2015-12-17 10:00;230,25
2015-12-17 10:15;237,25
2015-12-17 10:30;246,5
2015-12-17 10:45;260,1
2015-12-17 11:00;256,75
2015-12-17 11:15;239,1
2015-12-17 11:30;249,3
2015-12-17 11:45;255,5
2015-12-17 12:00;256,25
2015-12-17 12:15;262,95
2015-12-17 12:30;268,75
2015-12-17 12:45;265,25
2015-12-17 13:00;265,75
2015-12-17 13:15;269,9
2015-12-17 13:30;273,85
2015-12-17 13:45;268,45
2015-12-17 14:00;257,8
2015-12-17 14:15;265
2015-12-17 14:30;255,9
2015-12-17 14:45;254,2
2015-12-17 15:00;253,8
2015-12-17 15:15;235,85
2015-12-17 15:30;228,35
2015-12-17 15:45;224,4
2015-12-17 16:00;214,2
2015-12-17 16:15;198,45
2015-12-17 16:30;195,5
2015-12-17 16:45;192,8
2015-12-17 17:00;195,85
2015-12-17 17:15;195,85
2015-12-17 17:30;186,85
2015-12-17 17:45;192,1
2015-12-17 18:00;183,6
2015-12-17 18:15;179,6
2015-12-17 18:30;178,4
2015-12-17 18:45;171,7
2015-12-17 19:00;159,6
2015-12-17 19:15;148,45
2015-12-17 19:30;138,15
2015-12-17 19:45;137
2015-12-17 20:00;140,05
2015-12-17 20:15;130,65
2015-12-17 20:30;130
2015-12-17 20:45;125,4
2015-12-17 21:00;122,95
2015-12-17 21:15;121,55
2015-12-17 21:30;124
2015-12-17 21:45;116,5
2015-12-17 22:00;113,8
2015-12-17 22:15;109,8
2015-12-17 22:30;106,75
2015-12-17 22:45;103,3
2015-12-17 23:00;101,4
2015-12-17 23:15;104,05
2015-12-17 23:30;103,9
2015-12-17 23:45;100,05
2015-12-18 00:00;100,75
2015-12-18 00:15;99,45
2015-12-18 00:30;92,3
2015-12-18 00:45;92,5
2015-12-18 01:00;91,65
2015-12-18 01:15;95,25
2015-12-18 01:30;97,3
2015-12-18 01:45;95,7
2015-12-18 02:00;94,05
2015-12-18 02:15;91,55
2015-12-18 02:30;91,7
2015-12-18 02:45;87,75
2015-12-18 03:00;88,8
2015-12-18 03:15;88,5
2015-12-18 03:30;88,8
2015-12-18 03:45;87,3
2015-12-18 04:00;89,25
2015-12-18 04:15;84,5
2015-12-18 04:30;87
2015-12-18 04:45;89,1
2015-12-18 05:00;97,45
2015-12-18 05:15;92,6
2015-12-18 05:30;94,95
2015-12-18 05:45;96,75
2015-12-18 06:00;98,35
2015-12-18 06:15;99,15
2015-12-18 06:30;102,3
2015-12-18 06:45;102,9
2015-12-18 07:00;102,8
2015-12-18 07:15;123,2
2015-12-18 07:30;131,85
2015-12-18 07:45;144,75
2015-12-18 08:00;205,1
2015-12-18 08:15;168,35
2015-12-18 08:30;167,5
2015-12-18 08:45;168,55
2015-12-18 09:00;190,25
2015-12-18 09:15;186,1
2015-12-18 09:30;207,4
2015-12-18 09:45;224,75
2015-12-18 10:00;230,35
2015-12-18 10:15;242,4
2015-12-18 10:30;246,65
2015-12-18 10:45;247,7
2015-12-18 11:00;244,4
2015-12-18 11:15;245,2
2015-12-18 11:30;258,6
2015-12-18 11:45;264,7
2015-12-18 12:00;259,95
2015-12-18 12:15;275,85
2015-12-18 12:30;284,3
2015-12-18 12:45;278
2015-12-18 13:00;283,75
2015-12-18 13:15;278,7
2015-12-18 13:30;269,65
2015-12-18 13:45;270,65
2015-12-18 14:00;265,35
2015-12-18 14:15;255,15
2015-12-18 14:30;250
2015-12-18 14:45;245,85
2015-12-18 15:00;251
2015-12-18 15:15;224,2
2015-12-18 15:30;222,45
2015-12-18 15:45;213,3
2015-12-18 16:00;208,4
2015-12-18 16:15;192,55
2015-12-18 16:30;186
2015-12-18 16:45;177,6
2015-12-18 17:00;172,3
2015-12-18 17:15;165,9
2015-12-18 17:30;165
2015-12-18 17:45;173,5
2015-12-18 18:00;165,45
2015-12-18 18:15;164,45
2015-12-18 18:30;161,6
2015-12-18 18:45;156,1
2015-12-18 19:00;154,85
2015-12-18 19:15;134,15
2015-12-18 19:30;122,4
2015-12-18 19:45;119,65
2015-12-18 20:00;112,15
2015-12-18 20:15;109,4
2015-12-18 20:30;107,6
2015-12-18 20:45;109,3
2015-12-18 21:00;106,8
2015-12-18 21:15;103,95
2015-12-18 21:30;106,65
2015-12-18 21:45;105,4
2015-12-18 22:00;97,3
2015-12-18 22:15;88,15
2015-12-18 22:30;88,65
2015-12-18 22:45;83,4
2015-12-18 23:00;81,2
2015-12-18 23:15;81,7
2015-12-18 23:30;81,45
2015-12-18 23:45;80,5
2015-12-19 00:00;80,55
2015-12-19 00:15;81,85
2015-12-19 00:30;81,15
2015-12-19 00:45;79,9
2015-12-19 01:00;79,05
2015-12-19 01:15;79,3
2015-12-19 01:30;81,6
2015-12-19 01:45;81,8
2015-12-19 02:00;82,65
2015-12-19 02:15;81,85
2015-12-19 02:30;81,25
2015-12-19 02:45;78,15
2015-12-19 03:00;78,35
2015-12-19 03:15;77,2
2015-12-19 03:30;77,9
2015-12-19 03:45;77,1
2015-12-19 04:00;77,55
2015-12-19 04:15;74,55
2015-12-19 04:30;74,6
2015-12-19 04:45;75,2
2015-12-19 05:00;74,45
2015-12-19 05:15;71,4
2015-12-19 05:30;73,8
2015-12-19 05:45;67,45
2015-12-19 06:00;67,2
2015-12-19 06:15;69,7
2015-12-19 06:30;70,45
2015-12-19 06:45;67,95
2015-12-19 07:00;69,95
2015-12-19 07:15;73,25
2015-12-19 07:30;74,65
2015-12-19 07:45;70,45
2015-12-19 08:00;72,85
2015-12-19 08:15;72
2015-12-19 08:30;69,55
2015-12-19 08:45;71,2
2015-12-19 09:00;66,45
2015-12-19 09:15;67,1
2015-12-19 09:30;70,8
2015-12-19 09:45;64,25
2015-12-19 10:00;68,3
2015-12-19 10:15;69,1
2015-12-19 10:30;73
2015-12-19 10:45;78,3
2015-12-19 11:00;87,75
2015-12-19 11:15;84,65
2015-12-19 11:30;85,75
2015-12-19 11:45;86,5
2015-12-19 12:00;87,55
2015-12-19 12:15;86,45
2015-12-19 12:30;84,7
2015-12-19 12:45;82,55
2015-12-19 13:00;82,8
2015-12-19 13:15;76,95
2015-12-19 13:30;78,95
2015-12-19 13:45;79,3
2015-12-19 14:00;79,1
2015-12-19 14:15;77,8
2015-12-19 14:30;79,45
2015-12-19 14:45;83,1
2015-12-19 15:00;81,7
2015-12-19 15:15;79,3
2015-12-19 15:30;81,35
2015-12-19 15:45;80,7
2015-12-19 16:00;82,5
2015-12-19 16:15;82,9
2015-12-19 16:30;81,6
2015-12-19 16:45;91,55
2015-12-19 17:00;94,2
2015-12-19 17:15;90,85
2015-12-19 17:30;89,9
2015-12-19 17:45;94,9
2015-12-19 18:00;98,2
2015-12-19 18:15;90,3
2015-12-19 18:30;87,6
2015-12-19 18:45;91,45
2015-12-19 19:00;88,2
2015-12-19 19:15;89,05
2015-12-19 19:30;86,25
2015-12-19 19:45;89,65
2015-12-19 20:00;91
2015-12-19 20:15;86,1
2015-12-19 20:30;84,95
2015-12-19 20:45;84,1
2015-12-19 21:00;83
2015-12-19 21:15;80,25
2015-12-19 21:30;83,7
2015-12-19 21:45;76,15
2015-12-19 22:00;76,05
2015-12-19 22:15;73,6
2015-12-19 22:30;72,25
2015-12-19 22:45;73,1
2015-12-19 23:00;69,95
2015-12-19 23:15;70,8
2015-12-19 23:30;70,8
2015-12-19 23:45;71,65
2015-12-20 00:00;68,9
2015-12-20 00:15;69,9
2015-12-20 00:30;69,65
2015-12-20 00:45;70,55
2015-12-20 01:00;69,1
2015-12-20 01:15;70,65
2015-12-20 01:30;70,9
2015-12-20 01:45;78,1
2015-12-20 02:00;76,6
2015-12-20 02:15;76,3
2015-12-20 02:30;78,8
2015-12-20 02:45;76,65
2015-12-20 03:00;78,55
2015-12-20 03:15;75,9
2015-12-20 03:30;71,65
2015-12-20 03:45;69,9
2015-12-20 04:00;72,05
2015-12-20 04:15;71,35
2015-12-20 04:30;72,05
2015-12-20 04:45;75,3
2015-12-20 05:00;73,6
2015-12-20 05:15;71,25
2015-12-20 05:30;74,35
2015-12-20 05:45;70,35
2015-12-20 06:00;73,85
2015-12-20 06:15;74,5
2015-12-20 06:30;76,35
2015-12-20 06:45;71,3
2015-12-20 07:00;74,15
2015-12-20 07:15;72,75
2015-12-20 07:30;75,15
2015-12-20 07:45;73,95
2015-12-20 08:00;70,75
2015-12-20 08:15;70,3
2015-12-20 08:30;69,4
2015-12-20 08:45;71,8
2015-12-20 09:00;67,55
2015-12-20 09:15;65,4
2015-12-20 09:30;66,15
2015-12-20 09:45;69,7
2015-12-20 10:00;70,4
2015-12-20 10:15;68,5
2015-12-20 10:30;71,9
2015-12-20 10:45;80,65
2015-12-20 11:00;83,4
2015-12-20 11:15;72,35
2015-12-20 11:30;71
2015-12-20 11:45;71,2
2015-12-20 12:00;71,95
2015-12-20 12:15;71,5
2015-12-20 12:30;72,3
2015-12-20 12:45;74,9
2015-12-20 13:00;73,95
2015-12-20 13:15;76,5
2015-12-20 13:30;76,3
2015-12-20 13:45;73,3
2015-12-20 14:00;75,05
2015-12-20 14:15;77,15
2015-12-20 14:30;74,5
2015-12-20 14:45;73,05
2015-12-20 15:00;73,9
2015-12-20 15:15;75,65
2015-12-20 15:30;75
2015-12-20 15:45;77,85
2015-12-20 16:00;76,3
2015-12-20 16:15;85,75
2015-12-20 16:30;83,2
2015-12-20 16:45;85,2
2015-12-20 17:00;87,75
2015-12-20 17:15;86,35
2015-12-20 17:30;85,8
2015-12-20 17:45;85,15
2015-12-20 18:00;87,4
2015-12-20 18:15;91,95
2015-12-20 18:30;91,4
2015-12-20 18:45;93,8
2015-12-20 19:00;91,1
2015-12-20 19:15;93,65
2015-12-20 19:30;87,5
2015-12-20 19:45;85,5
2015-12-20 20:00;84,9
2015-12-20 20:15;82,3
2015-12-20 20:30;80,85
2015-12-20 20:45;77,8
2015-12-20 21:00;83,6
2015-12-20 21:15;79,3
2015-12-20 21:30;83,2
2015-12-20 21:45;77
2015-12-20 22:00;76,05
2015-12-20 22:15;74,9
2015-12-20 22:30;72,35
2015-12-20 22:45;74,6
2015-12-20 23:00;73,2
2015-12-20 23:15;73,85
2015-12-20 23:30;73,15
2015-12-20 23:45;74,3

